Location: Bottenau
(48.5138°N, 8.0462°E)
Time: 09:43:23
(UTC+00:00)

Cosmos 1943 - Pass Details

Date: 18 April 2021
Orbit: 835 x 849 km, 71.0° (Epoch: 05 May)

Event Time Altitude Azimuth Distance (km) Brightness Sun altitude
Rises 22:41:41 0° 330° (NNW) 3,395 7.4 -29.5°
Reaches altitude 10° 22:44:08 10° 330° (NNW) 2,458 6.4 -29.6°
Enters shadow 22:49:01 66° 303° (WNW) 916 3.4 -29.7°
